Location: ??????
(41.3164°N, 22.6615°E)
Time: 10:38:10
(UTC+00:00)

Okean-O - Pass Details

Date: 16 October 2021
Orbit: 639 x 640 km, 98.2° (Epoch: 08 December)

Event Time Altitude Azimuth Distance (km) Brightness Sun altitude
Exits shadow 18:07:50 44° 221° (SW) 881 3.4 -27.1°
Maximum altitude 18:08:42 52° 260° (W) 798 3.3 -27.3°
Drops below altitude 10° 18:13:02 10° 337° (NNW) 2,040 5.6 -28.1°
Sets 18:15:18 0° 342° (NNW) 2,954 6.4 -28.5°
